| time (UTC) | temp C | wind direction | speed KPH | gust KPH | rain 1hr cm | rain 24hr cm | rain mn cm | humidity % | barometer mb |
| 20260506043547 | 13 | 0 | 0.0 | 0.0 | 0.00 | 0.00 | 0.00 | 86 | 1015.4 |
| 20260506043050 | 13 | 0 | 0.0 | 0.0 | 0.00 | 0.00 | 0.00 | 86 | 1015.3 |
| 20260506042547 | 13 | 0 | 0.0 | 0.0 | 0.00 | 0.00 | 0.00 | 85 | 1015.2 |
| 20260506042047 | 13 | 0 | 0.0 | 0.0 | 0.00 | 0.00 | 0.00 | 85 | 1015.2 |
| 20260506041605 | 14 | 0 | 0.0 | 1.6 | 0.00 | 0.00 | 0.00 | 84 | 1015.1 |
| 20260506041048 | 14 | 0 | 0.0 | 3.2 | 0.00 | 0.00 | 0.00 | 84 | 1015.0 |
| 20260506040545 | 14 | 0 | 0.0 | 3.2 | 0.00 | 0.00 | 0.00 | 84 | 1015.0 |
| 20260506040100 | 14 | 0 | 0.0 | 1.6 | 0.00 | 0.00 | 0.00 | 83 | 1014.9 |
| 20260506035545 | 15 | 0 | 0.0 | 4.8 | 0.00 | 0.00 | 0.00 | 83 | 1014.9 |
| 20260506035046 | 15 | 0 | 0.0 | 4.8 | 0.00 | 0.00 | 0.00 | 83 | 1015.0 |
| 20260506034556 | 15 | 0 | 0.0 | 4.8 | 0.00 | 0.00 | 0.00 | 82 | 1015.0 |
| 20260506034043 | 15 | 0 | 0.0 | 1.6 | 0.00 | 0.00 | 0.00 | 82 | 1015.0 |
| 20260506033545 | 15 | 0 | 0.0 | 1.6 | 0.00 | 0.00 | 0.00 | 81 | 1014.9 |
| 20260506033052 | 15 | 0 | 0.0 | 0.0 | 0.00 | 0.00 | 0.00 | 80 | 1014.9 |
| 20260506032545 | 15 | 0 | 0.0 | 0.0 | 0.00 | 0.00 | 0.00 | 79 | 1014.8 |
| 20260506032048 | 16 | 0 | 0.0 | 1.6 | 0.00 | 0.00 | 0.00 | 78 | 1014.8 |
| 20260506031555 | 16 | 0 | 0.0 | 1.6 | 0.00 | 0.00 | 0.00 | 76 | 1014.7 |
| 20260506031047 | 17 | 0 | 0.0 | 1.6 | 0.00 | 0.00 | 0.00 | 75 | 1014.8 |
| 20260506030547 | 17 | 0 | 0.0 | 3.2 | 0.00 | 0.00 | 0.00 | 74 | 1014.7 |
| 20260506030054 | 17 | 0 | 0.0 | 3.2 | 0.00 | 0.00 | 0.00 | 74 | 1014.7 |
| 20260506025547 | 17 | 0 | 0.0 | 3.2 | 0.00 | 0.00 | 0.00 | 73 | 1014.6 |
| 20260506025051 | 17 | 190 | 0.0 | 4.8 | 0.00 | 0.00 | 0.00 | 71 | 1014.6 |
| 20260506024556 | 18 | 190 | 0.0 | 4.8 | 0.00 | 0.00 | 0.00 | 71 | 1014.6 |
| 20260506024045 | 18 | 190 | 1.6 | 6.4 | 0.00 | 0.00 | 0.00 | 71 | 1014.6 |
| 20260506023545 | 18 | 0 | 0.0 | 6.4 | 0.00 | 0.00 | 0.00 | 71 | 1014.6 |
| 20260506023107 | 18 | 222 | 1.6 | 6.4 | 0.00 | 0.00 | 0.00 | 70 | 1014.6 |
| 20260506022544 | 18 | 212 | 1.6 | 8.0 | 0.00 | 0.00 | 0.00 | 70 | 1014.6 |
| 20260506022047 | 18 | 235 | 3.2 | 8.0 | 0.00 | 0.00 | 0.00 | 69 | 1014.6 |
| 20260506021611 | 18 | 0 | 1.6 | 6.4 | 0.00 | 0.00 | 0.00 | 69 | 1014.6 |
| 20260506021049 | 18 | 0 | 0.0 | 6.4 | 0.00 | 0.00 | 0.00 | 70 | 1014.6 |
| 20260506020545 | 18 | 0 | 3.2 | 8.0 | 0.00 | 0.00 | 0.00 | 69 | 1014.7 |
| 20260506020048 | 18 | 0 | 0.0 | 8.0 | 0.00 | 0.00 | 0.00 | 69 | 1014.6 |
| 20260506015548 | 18 | 0 | 0.0 | 11.3 | 0.00 | 0.00 | 0.00 | 68 | 1014.6 |
| 20260506015051 | 18 | 219 | 1.6 | 11.3 | 0.00 | 0.00 | 0.00 | 69 | 1014.5 |
| 20260506014553 | 18 | 224 | 3.2 | 11.3 | 0.00 | 0.00 | 0.00 | 67 | 1014.6 |
| 20260506014050 | 19 | 214 | 3.2 | 8.0 | 0.00 | 0.00 | 0.00 | 67 | 1014.5 |
| 20260506013547 | 19 | 0 | 0.0 | 8.0 | 0.00 | 0.00 | 0.00 | 68 | 1014.5 |
| 20260506013101 | 18 | 177 | 1.6 | 11.3 | 0.00 | 0.00 | 0.00 | 67 | 1014.5 |
| 20260506012547 | 19 | 0 | 4.8 | 11.3 | 0.00 | 0.00 | 0.00 | 67 | 1014.4 |
| 20260506012047 | 19 | 173 | 0.0 | 6.4 | 0.00 | 0.00 | 0.00 | 68 | 1014.4 |
| 20260506011612 | 18 | 338 | 0.0 | 8.0 | 0.00 | 0.00 | 0.00 | 68 | 1014.4 |
| 20260506011046 | 18 | 0 | 0.0 | 12.9 | 0.00 | 0.00 | 0.00 | 69 | 1014.4 |
| 20260506010546 | 18 | 0 | 4.8 | 12.9 | 0.00 | 0.00 | 0.00 | 67 | 1014.5 |
| 20260506010059 | 19 | 221 | 3.2 | 14.5 | 0.00 | 0.00 | 0.00 | 66 | 1014.6 |
| 20260506005550 | 19 | 226 | 1.6 | 14.5 | 0.00 | 0.00 | 0.00 | 66 | 1014.5 |
| 20260506005047 | 20 | 184 | 1.6 | 9.7 | 0.00 | 0.00 | 0.00 | 64 | 1014.5 |
| 20260506004553 | 20 | 0 | 0.0 | 14.5 | 0.00 | 0.00 | 0.00 | 67 | 1014.5 |
| 20260506004047 | 19 | 155 | 3.2 | 17.7 | 0.00 | 0.00 | 0.00 | 67 | 1014.6 |
| 20260506003547 | 19 | 174 | 4.8 | 17.7 | 0.00 | 0.00 | 0.00 | 68 | 1014.6 |
| 20260506003055 | 18 | 173 | 1.6 | 8.0 | 0.00 | 0.00 | 0.00 | 69 | 1014.6 |
| 20260506002547 | 19 | 48 | 0.0 | 8.0 | 0.00 | 0.00 | 0.00 | 69 | 1014.6 |
| 20260506002047 | 18 | 155 | 1.6 | 12.9 | 0.00 | 0.00 | 0.00 | 69 | 1014.7 |
| 20260506001555 | 18 | 267 | 4.8 | 12.9 | 0.00 | 0.00 | 0.00 | 69 | 1014.7 |
| 20260506001048 | 18 | 203 | 4.8 | 12.9 | 0.00 | 0.00 | 0.00 | 70 | 1014.8 |
| 20260506000547 | 18 | 202 | 3.2 | 9.7 | 0.00 | 0.00 | 0.00 | 70 | 1014.8 |
| 20260506000054 | 18 | 220 | 3.2 | 9.7 | 0.00 | 0.00 | 0.00 | 69 | 1014.8 |
| 20260505235548 | 18 | 236 | 3.2 | 9.7 | 0.00 | 0.00 | 0.00 | 70 | 1015.0 |
| 20260505235048 | 17 | 255 | 1.6 | 12.9 | 0.00 | 0.00 | 0.00 | 70 | 1015.0 |
| 20260505234551 | 17 | 215 | 3.2 | 14.5 | 0.00 | 0.00 | 0.00 | 68 | 1015.0 |
| 20260505234045 | 17 | 225 | 4.8 | 14.5 | 0.00 | 0.00 | 0.00 | 71 | 1015.1 |
| 20260505233544 | 17 | 0 | 0.0 | 9.7 | 0.00 | 0.00 | 0.00 | 72 | 1015.1 |
| 20260505233052 | 17 | 159 | 3.2 | 11.3 | 0.00 | 0.00 | 0.00 | 72 | 1015.1 |
| 20260505232547 | 17 | 195 | 4.8 | 12.9 | 0.00 | 0.00 | 0.00 | 73 | 1015.2 |
| 20260505232048 | 17 | 219 | 0.0 | 12.9 | 0.00 | 0.00 | 0.00 | 75 | 1015.2 |
| 20260505231608 | 17 | 247 | 6.4 | 11.3 | 0.00 | 0.00 | 0.00 | 71 | 1015.3 |
| 20260505231045 | 17 | 194 | 0.0 | 11.3 | 0.00 | 0.00 | 0.00 | 74 | 1015.3 |
| 20260505230545 | 17 | 152 | 3.2 | 14.5 | 0.00 | 0.00 | 0.00 | 73 | 1015.4 |
| 20260505230053 | 16 | 182 | 4.8 | 14.5 | 0.00 | 0.00 | 0.00 | 75 | 1015.5 |
| 20260505225546 | 16 | 199 | 3.2 | 11.3 | 0.00 | 0.00 | 0.00 | 75 | 1015.6 |
| 20260505225046 | 16 | 214 | 6.4 | 11.3 | 0.00 | 0.00 | 0.00 | 76 | 1015.6 |
| 20260505224603 | 16 | 214 | 3.2 | 9.7 | 0.00 | 0.00 | 0.00 | 77 | 1015.6 |
| 20260505224045 | 16 | 215 | 4.8 | 9.7 | 0.00 | 0.00 | 0.00 | 76 | 1015.7 |
| 20260505223545 | 16 | 203 | 1.6 | 11.3 | 0.00 | 0.00 | 0.00 | 76 | 1015.7 |
| 20260505223057 | 16 | 211 | 4.8 | 11.3 | 0.00 | 0.00 | 0.00 | 77 | 1015.7 |
| 20260505222550 | 16 | 252 | 4.8 | 14.5 | 0.00 | 0.00 | 0.00 | 77 | 1015.7 |
| 20260505222046 | 16 | 191 | 3.2 | 14.5 | 0.00 | 0.00 | 0.00 | 76 | 1015.8 |
| 20260505221551 | 16 | 213 | 3.2 | 9.7 | 0.00 | 0.00 | 0.00 | 76 | 1015.8 |
| 20260505221047 | 16 | 147 | 4.8 | 12.9 | 0.00 | 0.00 | 0.00 | 76 | 1015.8 |
| 20260505220547 | 16 | 0 | 3.2 | 12.9 | 0.00 | 0.00 | 0.00 | 77 | 1015.8 |
| 20260505220100 | 16 | 226 | 4.8 | 11.3 | 0.00 | 0.00 | 0.00 | 77 | 1015.8 |
| 20260505215546 | 16 | 118 | 4.8 | 11.3 | 0.00 | 0.00 | 0.00 | 77 | 1015.8 |
| 20260505215045 | 15 | 145 | 3.2 | 12.9 | 0.00 | 0.00 | 0.00 | 78 | 1015.9 |
| 20260505214557 | 15 | 163 | 4.8 | 12.9 | 0.00 | 0.00 | 0.00 | 78 | 1015.9 |
| 20260505214045 | 15 | 173 | 4.8 | 12.9 | 0.00 | 0.00 | 0.00 | 79 | 1015.8 |
| 20260505213544 | 15 | 186 | 4.8 | 12.9 | 0.00 | 0.00 | 0.00 | 79 | 1015.8 |
| 20260505213054 | 15 | 164 | 4.8 | 12.9 | 0.00 | 0.00 | 0.00 | 79 | 1015.9 |
| 20260505212546 | 15 | 188 | 3.2 | 12.9 | 0.00 | 0.00 | 0.00 | 80 | 1015.9 |
| 20260505212045 | 15 | 184 | 4.8 | 12.9 | 0.00 | 0.00 | 0.00 | 80 | 1015.9 |
| 20260505211549 | 15 | 222 | 4.8 | 12.9 | 0.00 | 0.00 | 0.00 | 80 | 1015.9 |
| 20260505211046 | 15 | 212 | 4.8 | 12.9 | 0.00 | 0.00 | 0.00 | 80 | 1016.0 |
| 20260505210544 | 15 | 259 | 1.6 | 11.3 | 0.00 | 0.00 | 0.00 | 80 | 1016.0 |
| 20260505210050 | 15 | 226 | 3.2 | 11.3 | 0.00 | 0.00 | 0.00 | 80 | 1016.0 |
| 20260505205546 | 15 | 213 | 1.6 | 11.3 | 0.00 | 0.00 | 0.00 | 80 | 1016.0 |
| 20260505205047 | 15 | 232 | 1.6 | 9.7 | 0.00 | 0.00 | 0.00 | 81 | 1016.1 |
| 20260505204551 | 15 | 155 | 3.2 | 9.7 | 0.00 | 0.00 | 0.00 | 81 | 1016.0 |
| 20260505204047 | 15 | 215 | 3.2 | 9.7 | 0.00 | 0.00 | 0.00 | 81 | 1016.1 |
| 20260505203545 | 15 | 214 | 1.6 | 12.9 | 0.00 | 0.00 | 0.00 | 82 | 1016.2 |
| 20260505203110 | 14 | 189 | 3.2 | 14.5 | 0.00 | 0.00 | 0.00 | 81 | 1016.2 |
| 20260505202546 | 15 | 207 | 4.8 | 14.5 | 0.00 | 0.00 | 0.00 | 81 | 1016.1 |
| 20260505202047 | 15 | 195 | 4.8 | 14.5 | 0.00 | 0.00 | 0.00 | 81 | 1016.1 |
| 20260505201601 | 15 | 168 | 3.2 | 11.3 | 0.00 | 0.00 | 0.00 | 81 | 1016.1 |
| 20260505201047 | 14 | 228 | 1.6 | 8.0 | 0.00 | 0.00 | 0.00 | 84 | 1016.1 |
| 20260505200547 | 14 | 217 | 1.6 | 11.3 | 0.00 | 0.00 | 0.00 | 83 | 1016.0 |
| 20260505200054 | 14 | 168 | 4.8 | 11.3 | 0.00 | 0.00 | 0.00 | 83 | 1016.1 |
| 20260505195548 | 14 | 231 | 3.2 | 11.3 | 0.00 | 0.00 | 0.00 | 83 | 1016.1 |
| 20260505195046 | 13 | 216 | 1.6 | 11.3 | 0.00 | 0.00 | 0.00 | 84 | 1016.1 |
| 20260505194557 | 13 | 223 | 4.8 | 11.3 | 0.00 | 0.00 | 0.00 | 84 | 1016.2 |
| 20260505194046 | 13 | 246 | 4.8 | 11.3 | 0.00 | 0.00 | 0.00 | 84 | 1016.1 |
| 20260505193545 | 13 | 209 | 3.2 | 11.3 | 0.00 | 0.00 | 0.00 | 84 | 1016.1 |
| 20260505193053 | 13 | 183 | 1.6 | 12.9 | 0.00 | 0.00 | 0.00 | 84 | 1016.1 |
| 20260505192547 | 13 | 0 | 1.6 | 12.9 | 0.00 | 0.00 | 0.00 | 84 | 1016.1 |
| 20260505192045 | 13 | 248 | 4.8 | 11.3 | 0.00 | 0.00 | 0.00 | 83 | 1016.0 |
| 20260505191608 | 13 | 239 | 3.2 | 9.7 | 0.00 | 0.00 | 0.00 | 84 | 1016.0 |
| 20260505191046 | 13 | 221 | 0.0 | 9.7 | 0.00 | 0.00 | 0.00 | 84 | 1016.0 |
| 20260505190547 | 13 | 205 | 3.2 | 8.0 | 0.00 | 0.00 | 0.00 | 84 | 1016.0 |
| 20260505190051 | 13 | 0 | 1.6 | 11.3 | 0.00 | 0.00 | 0.00 | 84 | 1016.0 |
| 20260505185547 | 13 | 161 | 4.8 | 12.9 | 0.00 | 0.00 | 0.00 | 84 | 1016.1 |
| 20260505185047 | 13 | 196 | 3.2 | 12.9 | 0.00 | 0.00 | 0.00 | 85 | 1015.9 |
| 20260505184552 | 13 | 205 | 4.8 | 12.9 | 0.00 | 0.00 | 0.00 | 85 | 1016.0 |
| 20260505184047 | 13 | 163 | 3.2 | 11.3 | 0.00 | 0.00 | 0.00 | 85 | 1015.9 |
| 20260505183548 | 13 | 212 | 3.2 | 11.3 | 0.00 | 0.00 | 0.00 | 85 | 1015.9 |
| 20260505183055 | 13 | 206 | 1.6 | 11.3 | 0.00 | 0.00 | 0.00 | 84 | 1015.9 |
| 20260505182544 | 13 | 203 | 3.2 | 9.7 | 0.00 | 0.00 | 0.00 | 84 | 1015.9 |
| 20260505182046 | 13 | 0 | 3.2 | 9.7 | 0.00 | 0.00 | 0.00 | 84 | 1015.8 |
| 20260505181553 | 13 | 217 | 1.6 | 11.3 | 0.00 | 0.00 | 0.00 | 85 | 1015.8 |
| 20260505181045 | 13 | 172 | 1.6 | 11.3 | 0.00 | 0.00 | 0.00 | 85 | 1015.8 |
| 20260505180543 | 13 | 144 | 3.2 | 9.7 | 0.00 | 0.00 | 0.00 | 86 | 1015.8 |
| 20260505175545 | 13 | 167 | 3.2 | 11.3 | 0.00 | 0.00 | 0.00 | 86 | 1015.8 |
| 20260505175045 | 13 | 167 | 4.8 | 11.3 | 0.00 | 0.00 | 0.00 | 86 | 1015.8 |
| 20260505174605 | 13 | 175 | 1.6 | 9.7 | 0.00 | 0.00 | 0.00 | 87 | 1015.9 |
| 20260505174047 | 13 | 213 | 3.2 | 12.9 | 0.00 | 0.00 | 0.00 | 87 | 1015.9 |
| 20260505173549 | 13 | 199 | 4.8 | 12.9 | 0.00 | 0.00 | 0.00 | 87 | 1015.9 |
| 20260505173057 | 13 | 142 | 4.8 | 11.3 | 0.00 | 0.00 | 0.00 | 87 | 1015.8 |
| 20260505172545 | 13 | 0 | 1.6 | 11.3 | 0.00 | 0.00 | 0.00 | 87 | 1015.8 |
| 20260505172044 | 12 | 180 | 3.2 | 11.3 | 0.00 | 0.00 | 0.00 | 87 | 1015.7 |
| 20260505171551 | 12 | 196 | 4.8 | 9.7 | 0.00 | 0.00 | 0.00 | 87 | 1015.8 |
| 20260505171047 | 12 | 176 | 1.6 | 9.7 | 0.00 | 0.00 | 0.00 | 87 | 1015.8 |
| 20260505170543 | 12 | 0 | 3.2 | 8.0 | 0.00 | 0.00 | 0.00 | 87 | 1015.8 |
| 20260505170107 | 12 | 225 | 1.6 | 6.4 | 0.00 | 0.00 | 0.00 | 87 | 1015.8 |
| 20260505165546 | 12 | 146 | 0.0 | 4.8 | 0.00 | 0.00 | 0.00 | 88 | 1015.8 |
| 20260505165050 | 12 | 0 | 1.6 | 8.0 | 0.00 | 0.00 | 0.00 | 88 | 1015.8 |
| 20260505164553 | 12 | 202 | 1.6 | 9.7 | 0.00 | 0.00 | 0.00 | 88 | 1015.8 |
| 20260505164046 | 12 | 213 | 4.8 | 9.7 | 0.00 | 0.00 | 0.00 | 87 | 1015.8 |
| 20260505163548 | 12 | 156 | 1.6 | 8.0 | 0.00 | 0.00 | 0.00 | 88 | 1015.7 |
| 20260505163052 | 12 | 164 | 1.6 | 8.0 | 0.00 | 0.00 | 0.00 | 88 | 1015.7 |
| 20260505162543 | 12 | 172 | 1.6 | 8.0 | 0.00 | 0.00 | 0.00 | 88 | 1015.7 |
| 20260505162047 | 12 | 0 | 1.6 | 9.7 | 0.00 | 0.00 | 0.00 | 88 | 1015.7 |
| 20260505161610 | 12 | 165 | 0.0 | 9.7 | 0.00 | 0.00 | 0.00 | 88 | 1015.7 |
| 20260505161046 | 12 | 157 | 1.6 | 8.0 | 0.00 | 0.00 | 0.00 | 88 | 1015.7 |
| 20260505160546 | 12 | 217 | 3.2 | 11.3 | 0.00 | 0.00 | 0.00 | 88 | 1015.7 |
| 20260505153100 | 12 | 160 | 3.2 | 9.7 | 0.00 | 0.00 | 0.00 | 90 | 1015.4 |
| 20260505152548 | 12 | 160 | 0.0 | 8.0 | 0.00 | 0.00 | 0.00 | 90 | 1015.5 |
| 20260505152045 | 12 | 161 | 1.6 | 9.7 | 0.00 | 0.00 | 0.00 | 90 | 1015.4 |
| 20260505151601 | 11 | 161 | 1.6 | 9.7 | 0.00 | 0.00 | 0.00 | 90 | 1015.3 |
| 20260505151045 | 11 | 161 | 3.2 | 14.5 | 0.00 | 0.00 | 0.00 | 91 | 1015.2 |
| 20260505150546 | 11 | 168 | 3.2 | 14.5 | 0.00 | 0.00 | 0.00 | 91 | 1015.3 |
| 20260505140545 | 11 | 169 | 0.0 | 8.0 | 0.00 | 0.00 | 0.00 | 92 | 1014.8 |
| 20260505140104 | 11 | 170 | 1.6 | 8.0 | 0.00 | 0.00 | 0.00 | 92 | 1014.7 |
| 20260505124551 | 10 | 167 | 1.6 | 8.0 | 0.00 | 0.00 | 0.00 | 94 | 1013.8 |
| 20260505124047 | 10 | 0 | 1.6 | 8.0 | 0.00 | 0.00 | 0.00 | 94 | 1013.8 |
| 20260505123546 | 10 | 167 | 3.2 | 8.0 | 0.00 | 0.00 | 0.00 | 94 | 1013.7 |
| 20260505123049 | 10 | 163 | 0.0 | 6.4 | 0.00 | 0.00 | 0.00 | 94 | 1013.7 |
| 20260505122548 | 10 | 0 | 0.0 | 6.4 | 0.00 | 0.00 | 0.00 | 93 | 1013.7 |
| 20260505122046 | 10 | 163 | 1.6 | 8.0 | 0.00 | 0.00 | 0.00 | 93 | 1013.7 |
| 20260505121612 | 10 | 0 | 1.6 | 9.7 | 0.00 | 0.00 | 0.00 | 93 | 1013.7 |
| 20260505121046 | 10 | 163 | 4.8 | 9.7 | 0.00 | 0.00 | 0.00 | 93 | 1013.6 |
| 20260505120546 | 10 | 174 | 1.6 | 4.8 | 0.00 | 0.00 | 0.00 | 93 | 1013.6 |
| 20260505120055 | 10 | 174 | 0.0 | 4.8 | 0.00 | 0.00 | 0.00 | 93 | 1013.6 |
| 20260505115551 | 10 | 174 | 0.0 | 4.8 | 0.00 | 0.00 | 0.00 | 93 | 1013.6 |
| 20260505115047 | 10 | 174 | 1.6 | 9.7 | 0.00 | 0.00 | 0.00 | 94 | 1013.6 |
| 20260505114551 | 10 | 174 | 1.6 | 9.7 | 0.00 | 0.00 | 0.00 | 94 | 1013.5 |
| 20260505114045 | 10 | 0 | 1.6 | 6.4 | 0.00 | 0.00 | 0.00 | 93 | 1013.5 |
| 20260505113546 | 10 | 178 | 0.0 | 4.8 | 0.00 | 0.00 | 0.00 | 93 | 1013.6 |
| 20260505113052 | 10 | 238 | 0.0 | 4.8 | 0.00 | 0.00 | 0.00 | 93 | 1013.6 |
| 20260505112547 | 9 | 0 | 0.0 | 4.8 | 0.00 | 0.00 | 0.00 | 93 | 1013.6 |
| 20260505112046 | 9 | 0 | 0.0 | 3.2 | 0.00 | 0.00 | 0.00 | 93 | 1013.6 |
| 20260505111550 | 9 | 0 | 0.0 | 3.2 | 0.00 | 0.00 | 0.00 | 93 | 1013.5 |
| 20260505111046 | 9 | 0 | 0.0 | 0.0 | 0.00 | 0.00 | 0.00 | 92 | 1013.5 |
| 20260505110545 | 9 | 0 | 0.0 | 1.6 | 0.00 | 0.00 | 0.00 | 92 | 1013.4 |
| 20260505102046 | 9 | 0 | 0.0 | 0.0 | 0.00 | 0.00 | 0.00 | 91 | 1013.1 |
| 20260505101558 | 9 | 0 | 0.0 | 0.0 | 0.00 | 0.00 | 0.00 | 91 | 1013.1 |
| 20260505101046 | 9 | 0 | 0.0 | 0.0 | 0.00 | 0.00 | 0.00 | 91 | 1013.1 |
| 20260505100544 | 9 | 0 | 0.0 | 0.0 | 0.00 | 0.00 | 0.00 | 90 | 1013.1 |
| 20260505100101 | 10 | 0 | 0.0 | 0.0 | 0.00 | 0.00 | 0.00 | 90 | 1013.0 |
| 20260505095545 | 10 | 0 | 0.0 | 0.0 | 0.00 | 0.00 | 0.00 | 90 | 1013.0 |
| 20260505095046 | 10 | 0 | 0.0 | 0.0 | 0.00 | 0.00 | 0.00 | 90 | 1013.0 |
| 20260505094552 | 10 | 0 | 0.0 | 0.0 | 0.00 | 0.00 | 0.00 | 89 | 1012.9 |
| 20260505094045 | 10 | 0 | 0.0 | 0.0 | 0.00 | 0.00 | 0.00 | 89 | 1012.8 |
| 20260505093545 | 10 | 0 | 0.0 | 0.0 | 0.00 | 0.00 | 0.00 | 89 | 1012.7 |
| 20260505093054 | 10 | 0 | 0.0 | 0.0 | 0.00 | 0.00 | 0.00 | 89 | 1012.7 |
| 20260505092549 | 10 | 0 | 0.0 | 0.0 | 0.00 | 0.00 | 0.00 | 88 | 1012.7 |
| 20260505092047 | 10 | 0 | 0.0 | 1.6 | 0.00 | 0.00 | 0.00 | 88 | 1012.5 |
| 20260505091550 | 10 | 0 | 0.0 | 1.6 | 0.00 | 0.00 | 0.00 | 88 | 1012.4 |
| 20260505091048 | 10 | 0 | 0.0 | 0.0 | 0.00 | 0.00 | 0.00 | 88 | 1012.4 |
| 20260505090546 | 10 | 0 | 0.0 | 4.8 | 0.00 | 0.00 | 0.00 | 88 | 1012.4 |
| 20260505085546 | 10 | 322 | 1.6 | 4.8 | 0.00 | 0.00 | 0.00 | 87 | 1012.3 |
| 20260505085046 | 10 | 322 | 0.0 | 3.2 | 0.00 | 0.00 | 0.00 | 87 | 1012.3 |
| 20260505084554 | 11 | 0 | 0.0 | 3.2 | 0.00 | 0.00 | 0.00 | 87 | 1012.3 |
| 20260505084045 | 11 | 0 | 0.0 | 0.0 | 0.00 | 0.00 | 0.00 | 86 | 1012.2 |
| 20260505083545 | 11 | 0 | 0.0 | 0.0 | 0.00 | 0.00 | 0.00 | 86 | 1012.1 |
| 20260505083056 | 11 | 0 | 0.0 | 0.0 | 0.00 | 0.00 | 0.00 | 86 | 1012.1 |
| 20260505082545 | 11 | 0 | 0.0 | 0.0 | 0.00 | 0.00 | 0.00 | 85 | 1012.1 |
| 20260505082045 | 11 | 0 | 0.0 | 0.0 | 0.00 | 0.00 | 0.00 | 85 | 1012.1 |
| 20260505081557 | 11 | 0 | 0.0 | 0.0 | 0.00 | 0.00 | 0.00 | 84 | 1012.1 |
| 20260505081045 | 11 | 0 | 0.0 | 0.0 | 0.00 | 0.00 | 0.00 | 84 | 1012.1 |
| 20260505080545 | 11 | 0 | 0.0 | 0.0 | 0.00 | 0.00 | 0.00 | 83 | 1012.0 |
| 20260505080055 | 12 | 0 | 0.0 | 0.0 | 0.00 | 0.00 | 0.00 | 82 | 1012.0 |
| 20260505075547 | 12 | 0 | 0.0 | 0.0 | 0.00 | 0.00 | 0.00 | 82 | 1012.0 |
| 20260505075045 | 12 | 0 | 0.0 | 1.6 | 0.00 | 0.00 | 0.00 | 81 | 1012.1 |
| 20260505074557 | 12 | 0 | 0.0 | 1.6 | 0.00 | 0.00 | 0.00 | 80 | 1012.1 |
| 20260505074046 | 12 | 0 | 0.0 | 1.6 | 0.00 | 0.00 | 0.00 | 80 | 1011.9 |
| 20260505073550 | 12 | 0 | 0.0 | 3.2 | 0.00 | 0.00 | 0.00 | 80 | 1011.9 |
| 20260505073059 | 12 | 0 | 0.0 | 3.2 | 0.00 | 0.00 | 0.00 | 79 | 1011.7 |
| 20260505072549 | 12 | 322 | 0.0 | 4.8 | 0.00 | 0.00 | 0.00 | 79 | 1011.6 |
| 20260505072049 | 13 | 0 | 0.0 | 4.8 | 0.00 | 0.00 | 0.00 | 78 | 1011.7 |
| 20260505071556 | 13 | 0 | 0.0 | 4.8 | 0.00 | 0.00 | 0.00 | 78 | 1011.5 |
| 20260505071044 | 13 | 322 | 0.0 | 4.8 | 0.00 | 0.00 | 0.00 | 77 | 1011.6 |
| 20260505070545 | 13 | 322 | 0.0 | 4.8 | 0.00 | 0.00 | 0.00 | 77 | 1011.5 |
| 20260505070051 | 13 | 296 | 1.6 | 4.8 | 0.00 | 0.00 | 0.00 | 76 | 1011.4 |
| 20260505065547 | 13 | 0 | 1.6 | 4.8 | 0.00 | 0.00 | 0.00 | 75 | 1011.4 |
| 20260505065046 | 13 | 303 | 0.0 | 4.8 | 0.00 | 0.00 | 0.00 | 75 | 1011.4 |
| 20260505064556 | 13 | 335 | 0.0 | 4.8 | 0.00 | 0.00 | 0.00 | 75 | 1011.4 |
| 20260505064043 | 13 | 0 | 0.0 | 4.8 | 0.00 | 0.00 | 0.00 | 75 | 1011.4 |
| 20260505063546 | 13 | 340 | 0.0 | 1.6 | 0.00 | 0.00 | 0.00 | 75 | 1011.3 |
| 20260505063053 | 13 | 0 | 0.0 | 1.6 | 0.00 | 0.00 | 0.00 | 75 | 1011.3 |
| 20260505062546 | 13 | 0 | 0.0 | 3.2 | 0.00 | 0.00 | 0.00 | 75 | 1011.2 |
| 20260505062045 | 13 | 0 | 0.0 | 3.2 | 0.00 | 0.00 | 0.00 | 75 | 1011.0 |
| 20260505061602 | 13 | 0 | 0.0 | 3.2 | 0.00 | 0.00 | 0.00 | 74 | 1010.9 |
| 20260505061043 | 13 | 360 | 0.0 | 1.6 | 0.00 | 0.00 | 0.00 | 75 | 1010.8 |
| 20260505060545 | 13 | 0 | 0.0 | 1.6 | 0.00 | 0.00 | 0.00 | 75 | 1010.7 |
| 20260505060058 | 14 | 0 | 0.0 | 1.6 | 0.00 | 0.00 | 0.00 | 74 | 1010.8 |
| 20260505055546 | 14 | 0 | 0.0 | 1.6 | 0.00 | 0.00 | 0.00 | 73 | 1010.7 |
| 20260505055046 | 14 | 0 | 0.0 | 6.4 | 0.00 | 0.00 | 0.00 | 73 | 1010.7 |
| 20260505054557 | 14 | 0 | 0.0 | 6.4 | 0.00 | 0.00 | 0.00 | 72 | 1010.7 |
| 20260505054046 | 15 | 327 | 0.0 | 3.2 | 0.00 | 0.00 | 0.00 | 72 | 1010.7 |
| 20260505053544 | 15 | 0 | 0.0 | 1.6 | 0.00 | 0.00 | 0.00 | 72 | 1010.8 |
| 20260505053106 | 14 | 0 | 0.0 | 1.6 | 0.00 | 0.00 | 0.00 | 71 | 1010.7 |
| 20260505052546 | 15 | 0 | 0.0 | 1.6 | 0.00 | 0.00 | 0.00 | 71 | 1010.7 |
| 20260505052046 | 15 | 0 | 0.0 | 4.8 | 0.00 | 0.00 | 0.00 | 71 | 1010.6 |
| 20260505051552 | 15 | 0 | 0.0 | 4.8 | 0.00 | 0.00 | 0.00 | 71 | 1010.6 |
| 20260505051045 | 15 | 0 | 0.0 | 6.4 | 0.00 | 0.00 | 0.00 | 70 | 1010.6 |
| 20260505050546 | 15 | 0 | 0.0 | 6.4 | 0.00 | 0.00 | 0.00 | 70 | 1010.6 |